Cosmos 1805 - Orbit

View from above orbital plane
View from above orbital plane
View from above satellite
View from above satellite

Ground track
Ground track

The orbit data is extracted from the following two-line orbital elements,

1 17191U 86097A   13140.22868541  .00002915  00000-0  20309-3 0  6197
2 17191 082.5033 047.8868 0011923 110.0633 250.1879 15.05037065439081
Epoch (UTC): 20 May 2013 05:29:18
Eccentricity: 0.0011923
inclination: 82.5033°
perigee height: 543 km
apogee height: 559 km
right ascension of ascending node: 47.8868°
argument of perigee: 110.0633°
revolutions per day: 15.05037065
mean anomaly at epoch: 250.1879°
orbit number at epoch: 43908

The dashed part of the orbit path shows where the satellite is in the earth's shadow,  

Developed and maintained by Chris Peat, Heavens-Above GmbH. Please read the updated FAQ before sending e-mail. Imprint. DLR